weather.gov     
National Weather Service

Terminal Aerodrome Forecast
NWS Homepage
This page is being discontinued on March 12, 2014.
The same data is available at this site. Please update your bookmarks.
Thank you, and we apologize for the inconvenience.
Please send an email to SR-SRH.Webmaster@noaa.gov with any concerns.


Current Version
Previous Version:    01  02  03  04  05  06  07  08  09  10  11  12  13  14  15  16  17  18  19  20  21  22  23  
[Printable]
140
FTUS45 KRIW 291100
TAFCPR
TAF
KCPR 291134Z 2912/3012 09009KT P6SM BKN120
     FM291600 08011KT P6SM VCSH SCT040 OVC100
     FM291900 07011G18KT P6SM VCTS SCT050CB OVC080
     FM300200 09010G15KT P6SM VCSH SCT050 OVC070
     FM300600 07008KT P6SM SCT100 BKN150=


U.S. Dept. of Commerce
NOAA National Weather Service
1325 East West Highway
Silver Spring, MD 20910
E-mail: w-nws.webmaster@noaa.gov
Page last modified: May 16, 2007
NATIONAL WEATHER SERVICE: for Safety, for Work, for Fun - FOR LIFE